sat.trackr.live / text

‹ back to catalog

2024-205F

NORAD 61899 · 2024-205F

PAYLOAD ACTIVE UNKNOWN

§ Identity

Operator
Country
PRC
Launch date
2024-11-11
Launch site
JSC
Launch vehicle
Mass (kg)
RCS (m²)

External: N2YO · Heavens-Above · Gunter

§ Orbital elements

Epoch: 2026-05-25T04:29:31.121664Z

Period
95.05 min
Inclination
97.4102°
Eccentricity
0.0008513
Mean motion
15.14921469 rev/d
Perigee alt
515.3 km
Apogee alt
527.1 km
Semi-major
6,899.4 km
B*
4.6369e-4
RAAN
217.1016°
Arg perigee
108.7694°
Mean anomaly
251.4462°
Rev number
8,479

§ Raw data

2024-205F1 61899U 24205F   26145.18716576  .00008585  00000+0  46369-3 0  99912 61899  97.4102 217.1016 0008513 108.7694 251.4462 15.14921469 84792

JSON: /api/v1/satellites/61899 · /tle

For live sub-satellite position, see the globe view (requires WebGL).

§ Visibility from observer

Set your observer location to see the next 7 days of passes ≥ 10°. The values pass through the URL so the page stays shareable.

No JS? Fill the form by hand. The geolocation button needs JavaScript.